{"data":{"norad_id":69276,"intl_designator":"2026-118K","name":"KUIPER-00590","alt_names":[],"object_type":"PAYLOAD","status":"ACTIVE","operator":null,"country":"US","launch_date":"2026-05-29","launch_site_code":"AFETR","launch_vehicle":null,"mission":null,"orbit_class":"UNKNOWN","rcs_meters":null,"size_class":null,"mass_kg":null,"dimensions":null,"purposes":[],"wikipedia_slug":null,"has_3d_model":false,"image_url":null,"decayed_at":null,"tle_current":{"epoch":"2026-09-18T06:17:44.042784Z","epoch_age_seconds":223454,"freshness":"STALE","line1":"1 69276U 26118K   26261.26231531  .00002028  00000+0  29490-3 0  9996","line2":"2 69276  51.9034 349.0972 0000541 129.8640 230.2370 14.79935604 17944","mean_motion":14.79935604,"eccentricity":5.41e-5,"inclination_deg":51.9034,"raan_deg":349.0972,"arg_perigee_deg":129.864,"mean_anomaly_deg":230.237,"bstar":0.0002949,"rev_number":1794,"period_min":97.301530965803,"perigee_km":629.14829435979,"apogee_km":629.90652364885,"semimajor_km":7007.6644090043,"source":"CELESTRAK","updated_at":"2026-09-20T09:00:24.778393Z"}}}